Regional Weather Roundup
Issued by NWS Mt. Holly, NJ

Home | Current Version | Previous Version | Text Only | Print | Product List | Glossary On
Versions: 1 2 3 4 5 6 7 8 9 10 11 12 13 14 15 16 17 18 19 20 21 22 23 24 25 26 27 28
000
ASUS41 KPHI 200110
RWRPHI

REGIONAL WEATHER ROUNDUP
NATIONAL WEATHER SERVICE MOUNT HOLLY NJ
900 PM EDT SAT APR 19 2014

NOTE:  "FAIR" INDICATES FEW OR NO CLOUDS BELOW 12,000 FEET WITH NO
SIGNIFICANT WEATHER AND/OR OBSTRUCTIONS TO VISIBILITY.

 * = STATION DOES NOT REPORT PRECIPITATION (E.G. RAIN, SNOW, ETC.)
        OR FOG.

NJZ015>026-200200-
SOUTHERN NEW JERSEY

CITY           SKY/WX    TMP DP  RH WIND       PRES   REMARKS
POMONA         CLOUDY    50  37  61 CALM      30.29R
RIO GRANDE*    CLOUDY    48  37  66 E3        30.30R
MILLVILLE      CLOUDY    49  36  61 SE3       30.29R
WRIGHTSTOWN    CLOUDY    52  30  43 SE2       30.28R
MOUNT HOLLY    CLOUDY    54  35  48 S3        30.29R
TRENTON        CLOUDY    58  22  24 N5        30.28R

$$
NJZ001>014-200200-
NORTHERN NEW JERSEY

CITY           SKY/WX    TMP DP  RH WIND       PRES   REMARKS
SUSSEX         PTCLDY    55  24  30 NE8       30.32R
ANDOVER*         N/A     50  32  50 CALM      30.31R
MORRISTOWN     CLEAR     57  21  24 N5        30.29R
NEWARK         MOCLDY    60  26  27 SE5       30.29R
TETERBORO      MOCLDY    61  22  22 NE8       30.28R
CALDWELL       MOCLDY    58  21  24 NE7       30.30R
SOMERVILLE     MOCLDY    56  23  27 CALM      30.27R
ALLAIRE*       CLOUDY    52  32  46 SW3       30.30R
TOMS RIVER*    CLOUDY    46  36  66 CALM      30.30R

$$
PAZ043-044-047-054-055-060>062-066>071-200200-
EASTERN PENNSYLVANIA

CITY           SKY/WX    TMP DP  RH WIND       PRES   REMARKS
PHILADELPHIA   CLOUDY    62  21  20 N7        30.28R
NORTH PHILA    CLOUDY    60  24  25 N6        30.30R
BLUE BELL      MOCLDY    55  30  38 CALM      30.28R
DOYLESTOWN     MOCLDY    55  23  28 N3        30.29R
QUAKERTOWN*    MOCLDY    55  25  30 NW5       30.30R
POTTSTOWN      MOCLDY    57  22  25 N8        30.31R
LANCASTER      MOCLDY    53  24  32 N9        30.30R
COATESVILLE    MOCLDY    55  23  28 N5        30.30R
READING        PTCLDY    58  23  26 N8        30.30R
ALLENTOWN      PTCLDY    53  27  36 N3        30.30R
MOUNT POCONO   PTCLDY    46  20  35 CALM      30.31R
HAZLETON       PTCLDY    50  21  32 N5        30.35R
WILKES BARRE   PTCLDY    50  25  37 VRB6      30.33R

$$
DEZALL-MDZ008-012-015-019-020-200200-
DELAWARE AND EASTERN MARYLAND

CITY           SKY/WX    TMP DP  RH WIND       PRES   REMARKS
WILMINGTON     CLOUDY    55  42  61 S10       30.29R
DOVER          CLOUDY    49  44  82 SE3       30.26R
GEORGETOWN     CLOUDY    50  38  63 E5        30.29R
EASTON         CLOUDY    57  41  54 SE3       30.32R
PATUXENT       CLOUDY    54  41  61 SE8       30.26R
OCEAN CITY     CLOUDY    50  39  66 E6        30.28R
WALLOPS ISLAND CLOUDY    53  42  66 E13       30.27R
CAMBRIDGE      CLOUDY    55  32  41 E8        30.28R
SALISBURY      CLOUDY    54  35  48 E6        30.27R

$$
PAZ001-021-NYZ056-072-MDZ011-DCZ001-200200-
OTHER NEARBY LOCATIONS

CITY           SKY/WX    TMP DP  RH WIND       PRES   REMARKS
HARRISBURG     MOCLDY    59  25  27 N5        30.30R
STATE COLLEGE  CLEAR     54  25  32 NE9       30.32R
WILLIAMSPORT   MOCLDY    51  26  37 N6        30.35R
BINGHAMTON     MOCLDY    43  26  51 N9        30.35R
NEW YORK CITY  MOCLDY    60  21  22 VRB5      30.32R
BALTIMORE      CLOUDY    60  28  29 NE8       30.27R
WASHINGTON DC  CLOUDY    62  29  28 NE7       30.27R

$$



USA.gov is the U.S. government's official web portal to all federal, state and local government web resources and services.